Date,TemperatureHighF,TemperatureAvgF,TemperatureLowF,DewpointHighF,DewpointAvgF,DewpointLowF,HumidityHigh,HumidityAvg,HumidityLow,PressureMaxIn,PressureMinIn,WindSpeedMaxMPH,WindSpeedAvgMPH,GustSpeedMaxMPH,PrecipitationSumIn
2013-3-1,44,32,25,28,24,21,88,74,47,30.57,30.37,7,1,16,0.09
2013-3-2,53,37,23,27,22,18,82,60,30,30.58,30.13,8,1,14,0.00
2013-3-3,50,37,28,34,26,22,90,67,33,30.13,29.76,6,1,14,0.20
2013-3-4,41,33,20,37,21,6,92,66,31,30.34,29.69,8,1,21,0.34
2013-3-5,46,26,12,15,8,2,70,49,18,30.63,30.19,4,1,9,0.00
2013-3-6,58,36,18,23,17,11,74,49,19,30.25,29.78,5,1,12,0.00
2013-3-7,61,43,29,23,19,12,70,43,15,29.98,29.72,4,1,14,0.00
2013-3-8,54,39,28,32,23,16,87,56,23,29.90,29.51,8,1,18,0.06
2013-3-9,36,32,27,32,29,23,91,88,83,30.12,29.50,4,1,12,0.12
2013-3-10,42,27,13,22,17,8,84,67,41,30.42,30.13,3,1,7,0.01
2013-3-11,49,34,20,26,20,14,80,59,32,30.35,30.02,4,1,13,0.00
2013-3-12,55,42,33,29,25,21,73,53,30,30.22,30.02,4,0,15,0.00
2013-3-13,58,42,28,26,23,19,80,52,23,30.41,30.18,6,1,13,0.00
2013-3-14,65,43,27,26,23,20,77,50,18,30.47,30.11,5,1,12,0.00
2013-3-15,66,46,30,28,25,23,77,49,21,30.19,29.81,4,2,12,0.00
2013-3-16,56,44,36,33,29,26,73,56,32,29.85,29.66,8,1,19,0.00
2013-3-17,48,39,30,37,24,7,91,60,23,29.79,29.58,8,1,27,0.17
2013-3-18,48,38,30,16,12,6,51,35,21,29.95,29.77,6,1,20,0.00
2013-3-19,51,40,29,19,6,-8,57,30,9,30.23,29.90,7,1,18,0.00
2013-3-20,50,34,21,34,16,4,82,50,22,30.29,29.81,6,1,12,0.01
2013-3-21,46,36,30,35,27,19,91,71,38,29.90,29.62,11,1,24,0.36
2013-3-22,46,33,24,20,15,8,74,51,22,29.91,29.55,11,2,20,0.00
2013-3-23,32,26,21,20,11,4,79,55,38,30.23,29.74,15,3,24,0.00
2013-3-24,32,20,12,16,4,-1,71,52,27,30.35,30.17,8,1,20,0.00
2013-3-25,41,25,8,7,1,-3,62,39,16,30.51,30.21,6,1,14,0.00
2013-3-26,56,38,22,23,14,5,61,38,22,30.29,29.80,9,1,16,0.00
2013-3-27,62,47,32,28,22,16,72,40,18,29.98,29.74,5,1,19,0.00
2013-3-28,62,46,30,26,23,19,71,44,20,30.08,29.85,7,1,15,0.00
2013-3-29,63,49,38,34,28,24,62,46,24,30.08,29.88,9,1,21,0.00
2013-3-30,64,47,30,32,26,20,83,50,21,30.15,29.89,10,1,19,0.00
2013-3-31,66,46,28,26,22,18,79,45,18,30.15,29.81,4,1,16,0.00